Regional Weather Roundup
Issued by NWS Cleveland, OH

Home | Current Version | Previous Version | Text Only | Print | Product List | Glossary On
Versions: 1 2 3 4 5 6 7 8 9 10 11 12 13 14 15 16 17 18 19 20 21 22 23 24 25 26 27 28 29 30 31 32 33 34 35 36 37 38 39 40 41 42 43 44 45 46 47 48 49 50
000
ASUS41 KCLE 282010
RWRCLE
OHIO REGIONAL WEATHER ROUNDUP
NATIONAL WEATHER SERVICE WILMINGTON, OH
300 PM EST SUN DEC 28 2014

NOTE: "FAIR" INDICATES FEW OR NO CLOUDS BELOW 12,000 FEET WITH NO
SIGNIFICANT WEATHER AND/OR OBSTRUCTIONS TO VISIBILITY.

OHZ001>008-015>018-024>027-034-035-043-044-282100-
   NORTHWEST OHIO

CITY           SKY/WX    TMP DP  RH WIND       PRES   REMARKS
DEFIANCE       CLOUDY    36  26  67 VRB6      30.13R
FINDLAY        CLOUDY    38  29  70 NW8       30.10R
TOLEDO EXPRESS CLOUDY    36  25  64 W8        30.10R
TOLEDO METCALF CLOUDY    38  26  62 W12       30.11R
LIMA           CLOUDY    37  28  70 NW9       30.11R
$$

OHZ009>014-019>023-028>033-038-089-282100-
   NORTHEAST OHIO

CITY           SKY/WX    TMP DP  RH WIND       PRES   REMARKS
CLE-HOPKINS    CLOUDY    37  30  75 NW9       30.11R
CLE-LAKEFRONT  CLOUDY    37  34  89 W13       30.08R
CUY CO. ARPT   CLOUDY    39  36  87 W14       30.08R
LORAIN-ELYRIA  CLOUDY    36  31  82 NW7       30.09R
ASHTABULA      CLOUDY    36  29  75 CALM      30.06R
AKRON-CANTON   CLOUDY    37  29  72 NW8       30.06R
WOOSTER        CLOUDY    36  30  79 NW8       30.07R
MANSFIELD      CLOUDY    36  30  79 W7        30.07R
YOUNGSTOWN     FLURRIES  35  32  88 W6        30.04R
$$

OHZ042-051>053-060>062-070>072-077>081-282100-
  SOUTHWEST OHIO

CITY           SKY/WX    TMP DP  RH WIND       PRES   REMARKS
CINC-COVINGTON CLOUDY    37  27  67 NW7       30.13R
CINC-LUNKEN    CLOUDY    38  30  73 NW6       30.16R
HAMILTON       CLOUDY    38  29  70 N5        30.15R
DAYTON         CLOUDY    37  29  72 NW7       30.12R
WRIGHT-PAT AFB CLOUDY    37  30  76 NW8       30.12R
DAYTON GENERAL CLOUDY    36  29  75 NW7       30.11S
WILMINGTON     CLOUDY    35  28  75 W8        30.11R WCI  29
$$

OHZ036-037-039>041-045>050-054>059-063>069-073>076-082>088-282100-
  CENTRAL AND SOUTHEAST OHIO

CITY           SKY/WX    TMP DP  RH WIND       PRES   REMARKS
COLUMBUS       CLOUDY    37  29  72 NW6       30.09S
OSU AIRPORT    CLOUDY    37  29  72 NW7       30.10S
BOLTON FIELD   CLOUDY    36  30  80 NW7       30.11R
RICKENBACK AFB CLOUDY    37  30  75 NW5       30.09F
NEWARK         CLOUDY    39  30  70 NW6       30.08S
MARION         CLOUDY    37  30  75 NW7       30.09S
LANCASTER      CLOUDY    38  31  76 W5        30.10S
ZANESVILLE     CLOUDY    37  29  72 NW5       30.08R
NEW PHILLY     CLOUDY    39  30  70 NW7       30.08R
$$



USA.gov is the U.S. government's official web portal to all federal, state and local government web resources and services.